Location: Malanoce
(44.2500°N, 7.4667°E)
Time: 13:00:36
(UTC+00:00)

SJ 16-02 - Pass Details

Date: 17 November 2025
Orbit: 585 x 594 km, 75.0° (Epoch: 06 December)

Event Time Altitude Azimuth Distance (km) Brightness Sun altitude
Rises 18:07:17 0° 206° (SSW) 2,822 5.2 -22.4°
Reaches altitude 10° 18:09:31 10° 210° (SSW) 1,925 4.3 -22.8°
Maximum altitude 18:13:46 62° 291° (WNW) 675 1.7 -23.6°
Enters shadow 18:15:17 37° 356° (N) 935 2.2 -23.9°
